EW2690 Weather Reports


Display with metric or nautical units.
time (UTC)temp
F
wind
direction
speed
MPH
gust
MPH
rain 1hr
in
rain 24hr
in
rain mn
in
humidity
%
barometer
mb
20260831000410 70 228 0.0 1.0 0.02 0.06 0.06 97 1030.2
20260831000024 70 228 0.0 1.0 0.02 0.06 0.06 97 1030.2
20260830233106 71 227 1.0 3.0 0.01 0.05 0.05 95 1029.1
20260830230325 71 228 0.0 3.0 0.00 0.04 0.04 94 1029.1
20260830230016 71 228 0.0 3.0 0.00 0.04 0.04 94 1029.0
20260830193040 73 127 2.0 4.0 0.00 0.04 0.04 91 1029.4
20260830190337 73 150 1.0 5.0 0.01 0.04 0.04 93 1029.7
20260830190012 73 134 3.0 5.0 0.01 0.04 0.04 93 1029.8
20260830183044 71 298 3.0 9.0 0.01 0.04 0.04 94 1030.6
20260830180353 72 239 1.0 7.0 0.00 0.03 0.03 92 1030.7
20260830180035 72 244 2.0 7.0 0.00 0.03 0.03 92 1030.7
20260830173049 72 248 2.0 5.0 0.01 0.03 0.03 92 1031.0
20260830170346 71 198 1.0 3.0 0.01 0.03 0.03 93 1031.0
20260830170021 71 198 1.0 3.0 0.01 0.03 0.03 94 1031.0
20260830163031 70 273 1.0 2.0 0.01 0.02 0.02 94 1031.1
20260830160333 71 229 1.0 3.0 0.02 0.02 0.02 92 1031.0
20260830160051 71 229 1.0 3.0 0.02 0.02 0.02 92 1031.0
20260830153024 71 231 0.0 3.0 0.01 0.01 0.01 90 1031.1
20260830150319 72 250 0.0 1.0 0.00 0.00 0.00 88 1030.9
20260830150058 72 250 0.0 3.0 0.00 0.00 0.00 88 1030.8
20260830143010 72 243 0.0 0.0 0.00 0.00 0.00 85 1030.5
20260830140414 72 243 0.0 1.0 0.00 0.00 0.00 84 1030.4
20260830140024 72 243 0.0 1.0 0.00 0.00 0.00 83 1030.3
20260830133127 72 240 3.0 5.0 0.00 0.00 0.00 80 1029.9
20260830133024 72 240 3.0 5.0 0.00 0.00 0.00 80 1029.9
20260830130340 71 180 1.0 4.0 0.00 0.00 0.00 80 1029.7
20260830130119 71 225 1.0 4.0 0.00 0.00 0.00 80 1029.7
20260830130036 71 225 1.0 4.0 0.00 0.00 0.00 80 1029.7
20260830123015 71 250 2.0 4.0 0.00 0.00 0.00 78 1029.7
20260830120333 71 189 2.0 4.0 0.00 0.00 0.00 77 1029.4
20260830120029 71 221 1.0 4.0 0.00 0.00 0.00 78 1029.4
20260830113051 71 271 1.0 5.0 0.00 0.00 0.00 76 1029.3
20260830110317 71 260 2.0 4.0 0.00 0.00 0.00 74 1029.4
20260830110020 71 244 2.0 4.0 0.00 0.00 0.00 74 1029.5
20260830103036 71 202 2.0 8.0 0.00 0.00 0.00 74 1029.5
20260830100418 70 196 2.0 5.0 0.00 0.00 0.00 75 1029.7
20260830100032 70 233 2.0 6.0 0.00 0.00 0.00 75 1029.7
20260830093048 69 190 3.0 5.0 0.00 0.00 0.00 77 1029.7
20260830090344 69 123 2.0 3.0 0.00 0.00 0.00 79 1029.7
20260830083013 68 164 2.0 5.0 0.00 0.00 0.00 81 1029.7
20260830080310 67 187 1.0 2.0 0.00 0.00 0.00 85 1029.8
20260830080034 67 187 1.0 2.0 0.00 0.00 0.00 85 1029.8
20260830073028 66 187 0.0 2.0 0.00 0.00 0.00 88 1029.9
20260830070320 65 188 0.0 0.0 0.00 0.00 0.00 93 1030.0
20260830070016 65 188 0.0 0.0 0.00 0.00 0.00 93 1030.0
20260830063032 64 188 0.0 0.0 0.00 0.00 0.00 94 1030.4
20260830060336 64 188 0.0 0.0 0.00 0.00 0.00 92 1030.5
20260830060054 64 188 0.0 0.0 0.00 0.00 0.00 92 1030.6
20260830053032 64 188 0.0 0.0 0.00 0.00 0.00 93 1030.4
20260830050327 63 188 0.0 0.0 0.00 0.00 0.00 93 1030.6
20260830050050 63 188 0.0 0.0 0.00 0.00 0.00 93 1030.5
20260830043043 63 188 0.0 0.0 0.00 0.00 0.00 92 1030.3
20260830040313 64 188 0.0 0.0 0.00 0.00 0.00 90 1030.2
20260830040105 64 188 0.0 0.0 0.00 0.00 0.00 90 1030.3
20260830033027 65 188 0.0 0.0 0.00 0.00 0.00 90 1030.1
20260830030316 65 188 0.0 2.0 0.00 0.00 0.00 90 1030.3
20260830030013 65 188 1.0 2.0 0.00 0.00 0.00 90 1030.3
20260830023014 65 44 0.0 0.0 0.00 0.00 0.00 93 1030.4
20260830020330 65 37 0.0 0.0 0.00 0.00 0.00 93 1030.5
20260830020022 65 37 0.0 0.0 0.00 0.00 0.00 93 1030.6
20260830013021 66 37 0.0 0.0 0.00 0.00 0.00 92 1030.7
20260830010347 67 37 0.0 0.0 0.00 0.00 0.00 90 1030.4
20260830010020 67 37 0.0 0.0 0.00 0.00 0.00 90 1030.4
20260830003108 68 37 0.0 0.0 0.00 0.00 0.00 88 1030.4